Tracking 22287 objects as of 27-Jan-2021
HD Live streaming from Space Station
objects crossing your sky now

GALILEO-FM2

Track GALILEO-FM2 now!
GALILEO-FM2 is classified as:


NORAD ID: 37847
Int'l Code: 2011-060B
Perigee: 23,212.3 km
Apogee: 23,246.0 km
Inclination: 56.8 °
Period: 844.7 minutes
Semi major axis: 29600 km
RCS: 48.7715 m2 (large)
Launch date: October 21, 2011
Source: European Space Agency (ESA)
Launch site: FRENCH GUIANA (FRGUI)

GALILEO-FM2 is a navigation satellite part of the European Union's Galileo program.
aabbcc
Your satellite tracking list
Your tracking list is empty




NASA's NSSDC Master Catalog

Two Line Element Set (TLE):
1 37847U 11060B   21025.48610473 -.00000044  00000-0  00000-0 0  9999
2 37847  56.7622  35.1893 0005681 304.1518 236.0006  1.70475539 57561
Source of the keplerian elements: AFSPC